Location: Big Sky Observatory Site
(50.2333°N, 113.4000°W)
Time: 02:09:31
(UTC-07:00)

Amateur Radio Satellites - All Passes

Search period start: 21 January 2018 01:39
Search period end: 22 January 2018 01:39
Location: Big Sky Observatory Site, 50.2333°N, 113.4000°W

Satellite Date Start Highest point End Downlink Frequencies (MHz)
Time Altitude Azimuth
50 SAT 21 Jan 01:39:59 01:43:03 73° 255° (WSW) 01:46:10 437.505
BEESAT 21 Jan 01:44:12 01:47:33 19° 57° (ENE) 01:50:56 436.000
DUCHIFAT 1 21 Jan 01:51:34 01:55:23 33° 294° (WNW) 01:59:11 145.980
EO-79 21 Jan 01:53:07 01:56:40 26° 296° (WNW) 02:00:13 145.935-145.965
Gurwin Techsat 1B 21 Jan 01:59:29 02:04:30 40° 97° (E) 02:09:29 435.225
Oscar 19 21 Jan 02:12:49 02:18:01 66° 103° (ESE) 02:23:07 437.125/150
AO-91 21 Jan 02:19:49 02:24:09 88° 294° (WNW) 02:28:59 145.960
POLYITAN 1 21 Jan 02:29:10 02:31:23 14° 303° (WNW) 02:33:35 437.675
ITUPSAT 1 21 Jan 02:40:35 02:45:13 53° 69° (ENE) 02:49:55 437.325
NANOSAT C BR1 21 Jan 02:45:26 02:46:45 11° 306° (NW) 02:48:04 145.865
YUBILEINY 21 Jan 02:46:43 02:51:34 16° 315° (NW) 02:56:26 435.215
nSIGHT-1 21 Jan 02:48:53 02:51:46 32° 211° (SSW) 02:54:39 .
BUGSAT 1 21 Jan 02:52:28 02:56:14 31° 294° (WNW) 02:59:58 437.445
UKube-1 21 Jan 02:57:25 03:00:47 22° 267° (W) 03:04:11 .
ISS 21 Jan 03:02:32 03:05:35 35° 210° (SSW) 03:08:36 437.550
MOZHAYETS 4 21 Jan 03:10:23 03:14:55 55° 260° (W) 03:19:31
DX 1 21 Jan 03:12:03 03:13:24 11° 273° (W) 03:14:46 434.975-435.025
CUBESAT XI-V 21 Jan 03:13:46 03:18:17 49° 69° (ENE) 03:22:49 437.345
AO-7 21 Jan 03:16:20 03:23:44 33° 94° (E) 03:31:02 .
O/OREOS (USA 219) 21 Jan 03:19:46 03:22:18 15° 320° (NW) 03:24:51 437.305
BEESAT 21 Jan 03:20:05 03:24:50 71° 257° (WSW) 03:29:38 436.000
ITAMSAT 1 21 Jan 03:20:14 03:23:43 18° 89° (E) 03:27:13 435.822/435.867
Gurwin Techsat 1B 21 Jan 03:39:35 03:44:24 36° 297° (WNW) 03:49:12 435.225
Oscar 19 21 Jan 03:52:54 03:56:54 23° 302° (WNW) 04:00:52 437.125/150
AO-91 21 Jan 03:57:54 04:00:07 14° 301° (WNW) 04:02:27 145.960
ITUPSAT 1 21 Jan 04:19:34 04:23:20 23° 268° (W) 04:27:10 437.325
KKS-1 21 Jan 04:37:52 04:42:12 57° 70° (ENE) 04:46:33 437.445
CUBESAT XI-V 21 Jan 04:52:09 04:55:54 24° 268° (W) 04:59:41 437.345
STARS 21 Jan 04:53:31 04:57:29 35° 66° (ENE) 05:01:28 437.465
M-CUBED/EXP-1 PRIME 21 Jan 04:54:05 04:56:06 15° 97° (E) 04:58:05 437.505
DOVE 4 21 Jan 04:56:42 05:00:41 35° 97° (E) 05:04:50 437.250
ITAMSAT 1 21 Jan 04:58:34 05:03:47 76° 288° (WNW) 05:08:59 435.822/435.867
AO-7 21 Jan 05:08:47 05:17:07 71° 296° (WNW) 05:25:24 .
LilacSat-2 21 Jan 05:32:18 05:34:08 13° 88° (E) 05:35:58 437.200
XW-2C 21 Jan 05:34:17 05:36:00 13° 88° (E) 05:37:41 145.795 - 145.815
FO-29 21 Jan 05:48:14 05:52:04 17° 53° (NE) 05:55:41 435.910
SO-50 21 Jan 06:02:03 06:06:21 48° 123° (ESE) 06:10:44 436.795
KAITUO 1B 21 Jan 06:07:14 06:10:02 20° 92° (E) 06:12:47 145.475/437.950
XW-2F 21 Jan 06:09:11 06:12:25 27° 95° (E) 06:15:36 145.980 - 146.000
CUTE 1.7 + AOD 2 21 Jan 06:13:34 06:14:57 11° 86° (E) 06:16:20 437.475
KKS-1 21 Jan 06:15:58 06:19:06 19° 269° (W) 06:22:15 437.445
STRAND 1 21 Jan 06:17:22 06:22:05 40° 65° (ENE) 06:26:51 437.568
NUDT-PHONESAT 21 Jan 06:17:30 06:20:32 24° 94° (E) 06:23:33 437.300
XW-2D 21 Jan 06:18:57 06:22:29 37° 97° (E) 06:25:59 145.860 - 145.880
M-CUBED/EXP-1 PRIME 21 Jan 06:27:32 06:30:49 42° 296° (WNW) 06:33:56 437.505
CUBEBUG 2 21 Jan 06:28:06 06:30:19 13° 85° (E) 06:32:31 437.445
STARS 21 Jan 06:30:02 06:33:52 29° 265° (W) 06:37:43 437.465
CUTE-I 21 Jan 06:33:39 06:38:42 42° 98° (E) 06:43:45 437.470
DOVE 4 21 Jan 06:34:36 06:38:19 29° 294° (WNW) 06:42:11 437.250
XW-2B 21 Jan 06:36:27 06:40:11 56° 101° (E) 06:43:51 145.730 - 145.750
ITAMSAT 1 21 Jan 06:39:31 06:42:26 15° 308° (NW) 06:45:20 435.822/435.867
HO-68 21 Jan 06:46:43 06:53:02 32° 94° (E) 06:59:19 435.675
AO-7 21 Jan 07:02:27 07:08:34 23° 319° (NW) 07:14:41 .
LilacSat-2 21 Jan 07:05:03 07:08:49 62° 287° (WNW) 07:12:32 437.200
XW-2C 21 Jan 07:06:50 07:10:35 64° 287° (WNW) 07:14:18 145.795 - 145.815
AAUSAT CUBESAT 2 21 Jan 07:15:52 07:17:56 13° 88° (E) 07:20:01 437.432
FO-29 21 Jan 07:29:46 07:36:25 75° 72° (ENE) 07:42:18 435.910
SEEDS 21 Jan 07:33:59 07:37:59 43° 98° (E) 07:41:56 437.485
KAITUO 1B 21 Jan 07:40:42 07:44:08 37° 291° (WNW) 07:47:33 145.475/437.950
SO-50 21 Jan 07:42:51 07:46:58 34° 324° (NW) 07:51:11 436.795
XW-2F 21 Jan 07:43:14 07:46:30 29° 293° (WNW) 07:49:44 145.980 - 146.000
CUTE 1.7 + AOD 2 21 Jan 07:47:10 07:51:25 86° 282° (WNW) 07:55:37 437.475
NUDT-PHONESAT 21 Jan 07:51:07 07:54:24 31° 292° (WNW) 07:57:39 437.300
XW-2D 21 Jan 07:53:32 07:56:27 21° 296° (WNW) 07:59:20 145.860 - 145.880
STRAND 1 21 Jan 07:56:46 08:01:21 33° 264° (W) 08:05:59 437.568
RS-15 21 Jan 07:57:57 08:09:08 44° 110° (ESE) 08:20:08 29.354- 29.394
CUBEBUG 2 21 Jan 08:02:48 08:07:36 88° 109° (ESE) 08:12:22 437.445
XW-2A 21 Jan 08:05:30 08:08:34 31° 97° (E) 08:11:35 145.665 - 145.685
TIGRISAT 21 Jan 08:06:12 08:09:24 20° 59° (ENE) 08:12:40 435.000
UWE-3 21 Jan 08:07:25 08:12:04 60° 101° (E) 08:16:39 435.000/436.395/437.385
XW-2B 21 Jan 08:11:38 08:13:57 16° 299° (WNW) 08:16:14 145.730 - 145.750
CUTE-I 21 Jan 08:13:54 08:18:40 34° 297° (WNW) 08:23:26 437.470
UNISAT 6 21 Jan 08:20:53 08:24:39 27° 63° (ENE) 08:28:31 437.425
O/OREOS (USA 219) 21 Jan 08:25:30 08:27:53 14° 39° (NE) 08:30:16 437.305
ZACube-1 21 Jan 08:30:16 08:34:48 55° 100° (E) 08:39:13 437.345
HO-68 21 Jan 08:34:09 08:41:13 63° 294° (WNW) 08:48:14 435.675
AO-73 21 Jan 08:36:47 08:41:18 56° 100° (E) 08:45:43 145.935
AAUSAT CUBESAT 2 21 Jan 08:49:46 08:53:52 70° 286° (WNW) 08:57:56 437.432
YUBILEINY 21 Jan 08:51:13 08:58:31 28° 58° (ENE) 09:05:45 435.215
Oscar 11 21 Jan 09:09:39 09:14:00 75° 103° (ESE) 09:18:19 .
SEEDS 21 Jan 09:10:09 09:13:25 23° 297° (WNW) 09:16:41 437.485
PCSat 21 Jan 09:15:14 09:18:44 18° 106° (ESE) 09:22:16 145.827
FO-29 21 Jan 09:16:55 09:21:59 23° 269° (W) 09:26:39 435.910
DELFI C3 21 Jan 09:22:42 09:25:46 21° 93° (E) 09:28:49 145.870
CUTE 1.7 + AOD 2 21 Jan 09:24:47 09:26:34 12° 304° (WNW) 09:28:20 437.475
SO-50 21 Jan 09:26:02 09:28:45 15° 348° (NNW) 09:31:30 436.795
XW-2A 21 Jan 09:38:31 09:41:05 20° 295° (WNW) 09:43:38 145.665 - 145.685
CUBEBUG 2 21 Jan 09:40:44 09:43:33 16° 303° (WNW) 09:46:24 437.445
TIGRISAT 21 Jan 09:41:14 09:45:39 63° 259° (W) 09:50:12 435.000
UWE-3 21 Jan 09:44:36 09:48:07 21° 299° (WNW) 09:51:37 435.000/436.395/437.385
Max Valier Satellite 21 Jan 09:55:53 09:59:14 31° 96° (E) 10:02:32 145.860
UNISAT 6 21 Jan 09:56:58 10:01:11 41° 263° (W) 10:05:33 437.425
PRISM 21 Jan 09:59:44 10:03:43 58° 72° (ENE) 10:07:43 437.425
O/OREOS (USA 219) 21 Jan 10:03:42 10:08:10 68° 60° (ENE) 10:12:38 437.305
ZACube-1 21 Jan 10:07:12 10:10:43 22° 299° (WNW) 10:14:11 437.345
RS-15 21 Jan 10:08:36 10:20:59 76° 315° (NW) 10:33:04 29.354- 29.394
BEESAT 3 21 Jan 10:10:18 10:14:07 45° 123° (ESE) 10:17:56 437.485
EO-88 21 Jan 10:13:30 10:16:48 32° 96° (E) 10:20:04 145.990 - 145.960
AO-73 21 Jan 10:13:42 10:17:10 22° 299° (WNW) 10:20:34 145.935
POLYITAN 1 21 Jan 10:14:43 10:17:24 17° 59° (ENE) 10:20:06 437.675
AIST 2D 21 Jan 10:18:47 10:22:05 38° 70° (ENE) 10:25:22 435.315
HO-68 21 Jan 10:23:11 10:27:40 18° 316° (NW) 10:32:08 435.675
NANOSAT C BR1 21 Jan 10:29:24 10:32:27 20° 61° (ENE) 10:35:32 145.865
QB50P2 21 Jan 10:43:09 10:46:53 31° 66° (ENE) 10:50:41 145.880/145.840
Oscar 11 21 Jan 10:46:59 10:49:36 16° 302° (WNW) 10:52:12 .
YUBILEINY 21 Jan 10:47:41 10:56:28 83° 263° (W) 11:05:09 435.215
PCSat 21 Jan 10:55:59 11:01:25 88° 305° (NW) 11:06:53 145.827
DELFI C3 21 Jan 10:56:58 11:00:39 39° 291° (WNW) 11:04:19 145.870
BEESAT 2 21 Jan 10:59:33 11:03:20 40° 122° (ESE) 11:07:09 435.950
SO-50 21 Jan 11:08:14 11:11:01 15° 13° (NNE) 11:13:49 436.795
DUCHIFAT 1 21 Jan 11:11:40 11:15:37 40° 68° (ENE) 11:19:36 145.980
EO-79 21 Jan 11:13:24 11:17:31 54° 71° (ENE) 11:21:41 145.935-145.965
ESTCUBE 1 21 Jan 11:28:28 11:32:23 28° 94° (E) 11:36:15 437.505/2401.250
Max Valier Satellite 21 Jan 11:29:52 11:32:57 25° 294° (WNW) 11:35:58 145.860
LO-87 21 Jan 11:30:58 11:34:20 34° 97° (E) 11:37:41 145.935 - 145.965
PRISM 21 Jan 11:36:50 11:39:22 16° 270° (W) 11:41:53 437.425
O/OREOS (USA 219) 21 Jan 11:44:14 11:47:04 17° 260° (W) 11:49:52 437.305
EO-88 21 Jan 11:47:22 11:50:18 23° 295° (WNW) 11:53:12 145.990 - 145.960
Gurwin Techsat 1B 21 Jan 11:47:33 11:51:12 19° 55° (NE) 11:54:52 435.225
AO-91 21 Jan 11:47:59 11:49:43 13° 58° (ENE) 11:51:29 145.960
BEESAT 3 21 Jan 11:48:12 11:51:47 30° 323° (NW) 11:55:21 437.485
POLYITAN 1 21 Jan 11:48:27 11:52:41 70° 258° (WSW) 11:56:59 437.675
AIST 2D 21 Jan 11:52:55 11:55:23 18° 268° (W) 11:57:52 435.315
Oscar 19 21 Jan 11:56:16 12:00:33 27° 60° (ENE) 12:04:50 437.125/150
NANOSAT C BR1 21 Jan 12:03:39 12:07:47 55° 259° (W) 12:11:59 145.865
BUGSAT 1 21 Jan 12:10:49 12:14:40 40° 68° (ENE) 12:18:35 437.445
QB50P2 21 Jan 12:18:50 12:22:39 32° 264° (W) 12:26:30 145.880/145.840
RS-15 21 Jan 12:24:08 12:35:39 43° 346° (NNW) 12:46:46 29.354- 29.394
AO-7 21 Jan 12:30:55 12:36:54 23° 40° (NE) 12:42:54 .
BEESAT 2 21 Jan 12:37:26 12:41:08 33° 322° (NW) 12:44:50 435.950
PCSat 21 Jan 12:41:06 12:45:33 25° 328° (NNW) 12:50:02 145.827
YUBILEINY 21 Jan 12:45:57 12:51:55 21° 286° (WNW) 12:57:53 435.215
AO-85 21 Jan 12:47:42 12:51:42 67° 125° (SE) 12:56:02 145.980
DUCHIFAT 1 21 Jan 12:47:59 12:51:25 24° 267° (W) 12:54:53 145.980
SO-50 21 Jan 12:48:29 12:52:47 35° 36° (NE) 12:57:07 436.795
EO-79 21 Jan 12:50:37 12:53:35 18° 269° (W) 12:56:36 145.935-145.965
SPROUT 21 Jan 12:53:44 12:57:56 50° 99° (E) 13:02:08 437.525
VELOX 1 21 Jan 13:01:37 13:05:38 34° 97° (E) 13:09:39 145.980
LO-87 21 Jan 13:04:42 13:07:33 22° 295° (WNW) 13:10:23 145.935 - 145.965
ESTCUBE 1 21 Jan 13:05:06 13:09:16 38° 293° (WNW) 13:13:24 437.505/2401.250
DX 1 21 Jan 13:17:46 13:19:07 11° 87° (E) 13:20:27 434.975-435.025
AO-91 21 Jan 13:22:25 13:25:45 55° 259° (W) 13:29:16 145.960
Gurwin Techsat 1B 21 Jan 13:25:12 13:30:31 84° 254° (WSW) 13:35:53 435.225
BEESAT 3 21 Jan 13:28:56 13:30:29 12° 346° (NNW) 13:32:02 437.485
Oscar 19 21 Jan 13:34:27 13:39:33 56° 259° (W) 13:44:42 437.125/150
BUGSAT 1 21 Jan 13:46:53 13:50:10 23° 267° (W) 13:53:31 437.445
BEESAT 2 21 Jan 14:18:10 14:20:00 13° 344° (NNW) 14:21:50 435.950
AO-7 21 Jan 14:20:01 14:28:16 67° 63° (ENE) 14:36:35 .
50 SAT 21 Jan 14:21:20 14:24:17 38° 99° (E) 14:27:13 437.505
PCSat 21 Jan 14:28:13 14:30:56 14° 354° (N) 14:33:38 145.827
SO-50 21 Jan 14:28:53 14:33:26 51° 236° (WSW) 14:38:02 436.795
AO-85 21 Jan 14:28:58 14:32:32 26° 329° (NNW) 14:36:20 145.980
SPROUT 21 Jan 14:30:15 14:33:32 22° 298° (WNW) 14:36:48 437.525
VELOX 1 21 Jan 14:38:09 14:42:01 31° 295° (WNW) 14:45:53 145.980
UKube-1 21 Jan 14:38:19 14:42:26 41° 99° (E) 14:46:31 .
RS-15 21 Jan 14:40:03 14:51:32 45° 19° (NNE) 15:02:26 29.354- 29.394
ITAMSAT 1 21 Jan 14:42:15 14:47:07 44° 66° (ENE) 14:52:01 435.822/435.867
DX 1 21 Jan 14:51:35 14:55:57 88° 97° (E) 15:00:18 434.975-435.025
MOZHAYETS 4 21 Jan 15:00:51 15:04:42 25° 93° (E) 15:08:32
Gurwin Techsat 1B 21 Jan 15:08:34 15:11:17 14° 274° (W) 15:14:01 435.225
BEESAT 3 21 Jan 15:08:43 15:09:44 11° 10° (N) 15:10:44 437.485
BEESAT 21 Jan 15:15:57 15:19:35 21° 91° (E) 15:23:11 436.000
HO-68 21 Jan 15:38:26 15:40:54 12° 36° (NE) 15:43:23 435.675
M-CUBED/EXP-1 PRIME 21 Jan 15:42:08 15:46:17 53° 65° (ENE) 15:50:08 437.505
50 SAT 21 Jan 15:53:50 15:55:43 15° 297° (WNW) 15:57:35 437.505
BEESAT 2 21 Jan 15:58:17 15:59:27 11° 9° (N) 16:00:35 435.950
DOVE 4 21 Jan 16:06:43 16:10:53 59° 72° (ENE) 16:14:59 437.250
AO-85 21 Jan 16:12:11 16:14:28 14° 354° (N) 16:16:51 145.980
PCSat 21 Jan 16:13:03 16:16:36 17° 20° (NNE) 16:20:09 145.827
ITUPSAT 1 21 Jan 16:13:43 16:18:33 65° 103° (ESE) 16:23:19 437.325
AO-7 21 Jan 16:14:08 16:21:35 35° 265° (W) 16:29:07 .
UKube-1 21 Jan 16:14:42 16:18:16 25° 297° (WNW) 16:21:48 .
LilacSat-2 21 Jan 16:18:37 16:20:46 15° 60° (ENE) 16:22:56 437.200
XW-2C 21 Jan 16:19:59 16:21:59 14° 60° (ENE) 16:24:00 145.795 - 145.815
ITAMSAT 1 21 Jan 16:22:10 16:26:44 31° 265° (W) 16:31:20 435.822/435.867
CUTE-I 21 Jan 16:22:12 16:26:00 20° 56° (NE) 16:29:48 437.470
DX 1 21 Jan 16:29:15 16:31:31 14° 304° (NW) 16:33:47 434.975-435.025
MOZHAYETS 4 21 Jan 16:37:37 16:42:03 45° 292° (WNW) 16:46:27
CUBESAT XI-V 21 Jan 16:42:30 16:47:07 63° 102° (ESE) 16:51:40 437.345
BEESAT 3 21 Jan 16:45:20 16:48:36 24° 33° (NNE) 16:51:50 437.485
KAITUO 1B 21 Jan 16:51:26 16:54:12 20° 64° (ENE) 16:56:59 145.475/437.950
BEESAT 21 Jan 16:52:59 16:57:43 58° 290° (WNW) 17:02:25 436.000
RS-15 21 Jan 16:53:40 17:05:39 87° 50° (NE) 17:16:56 29.354- 29.394
XW-2F 21 Jan 16:54:05 16:57:17 26° 66° (ENE) 17:00:31 145.980 - 146.000
NUDT-PHONESAT 21 Jan 17:00:38 17:03:37 23° 65° (ENE) 17:06:35 437.300
XW-2D 21 Jan 17:04:07 17:07:39 36° 69° (ENE) 17:11:12 145.860 - 145.880
CUTE 1.7 + AOD 2 21 Jan 17:10:02 17:12:41 16° 59° (ENE) 17:15:21 437.475
M-CUBED/EXP-1 PRIME 21 Jan 17:17:49 17:20:52 19° 261° (W) 17:23:47 437.505
HO-68 21 Jan 17:20:16 17:26:48 40° 59° (ENE) 17:33:21 435.675
XW-2B 21 Jan 17:21:32 17:25:16 53° 72° (ENE) 17:29:00 145.730 - 145.750
NO-84 21 Jan 17:25:30 17:28:04 25° 140° (SE) 17:30:33 435.350 FM
CUBEBUG 2 21 Jan 17:30:16 17:33:21 19° 59° (ENE) 17:36:31 437.445
UWE-3 21 Jan 17:34:59 17:37:08 13° 55° (NE) 17:39:18 435.000/436.395/437.385
BEESAT 2 21 Jan 17:35:15 17:38:32 23° 32° (NNE) 17:41:49 435.950
DOVE 4 21 Jan 17:46:22 17:48:59 16° 270° (W) 17:51:34 437.250
LilacSat-2 21 Jan 17:50:44 17:54:35 66° 258° (WSW) 17:58:26 437.200
XW-2C 21 Jan 17:51:50 17:55:40 70° 258° (WSW) 17:59:30 145.795 - 145.815
ITUPSAT 1 21 Jan 17:52:21 17:55:56 21° 302° (WNW) 17:59:31 437.325
AO-85 21 Jan 17:53:37 17:56:41 17° 19° (NNE) 17:59:55 145.980
PCSat 21 Jan 17:56:09 18:01:23 45° 44° (NE) 18:06:35 145.827
ZACube-1 21 Jan 17:57:08 17:58:55 12° 54° (NE) 18:00:42 437.345
CUTE-I 21 Jan 18:00:10 18:05:29 79° 255° (WSW) 18:10:50 437.470
KKS-1 21 Jan 18:00:14 18:04:39 58° 102° (ESE) 18:09:03 437.445
AO-73 21 Jan 18:03:18 18:05:07 12° 54° (NE) 18:06:58 145.935
AAUSAT CUBESAT 2 21 Jan 18:10:04 18:12:49 18° 61° (ENE) 18:15:35 437.432
STARS 21 Jan 18:13:50 18:17:53 34° 97° (E) 18:21:55 437.465
CUBESAT XI-V 21 Jan 18:20:43 18:24:04 20° 301° (WNW) 18:27:23 437.345
BEESAT 3 21 Jan 18:22:33 18:26:28 64° 234° (SW) 18:30:18 437.485
KAITUO 1B 21 Jan 18:24:21 18:27:56 41° 262° (W) 18:31:30 145.475/437.950
XW-2F 21 Jan 18:27:55 18:31:19 30° 264° (W) 18:34:43 145.980 - 146.000
SEEDS 21 Jan 18:29:33 18:33:40 54° 71° (ENE) 18:37:47 437.485
BEESAT 21 Jan 18:33:21 18:34:31 11° 310° (NW) 18:35:41 436.000
NUDT-PHONESAT 21 Jan 18:33:50 18:37:17 34° 263° (W) 18:40:44 437.300
Oscar 11 21 Jan 18:34:50 18:37:16 15° 57° (ENE) 18:39:42 .
XW-2D 21 Jan 18:38:54 18:41:56 22° 267° (W) 18:44:57 145.860 - 145.880
XW-2A 21 Jan 18:40:46 18:43:33 23° 66° (ENE) 18:46:20 145.665 - 145.685
CUTE 1.7 + AOD 2 21 Jan 18:43:47 18:48:02 70° 258° (WSW) 18:52:18 437.475
XW-2B 21 Jan 18:57:25 18:59:45 15° 270° (W) 19:02:05 145.730 - 145.750
NO-84 21 Jan 19:02:08 19:05:04 57° 339° (NNW) 19:07:53 435.350 FM
CUBEBUG 2 21 Jan 19:05:04 19:09:27 67° 258° (WSW) 19:14:03 437.445
RS-15 21 Jan 19:07:00 19:16:44 33° 255° (WSW) 19:26:07 29.354- 29.394
HO-68 21 Jan 19:07:25 19:14:23 53° 259° (W) 19:21:23 435.675
UWE-3 21 Jan 19:08:20 19:12:48 80° 74° (ENE) 19:17:26 435.000/436.395/437.385
BEESAT 2 21 Jan 19:12:38 19:16:41 72° 232° (SW) 19:20:38 435.950
ZACube-1 21 Jan 19:29:54 19:34:22 73° 74° (ENE) 19:38:57 437.345
AO-85 21 Jan 19:33:39 19:38:14 44° 41° (NE) 19:43:09 145.980
AO-73 21 Jan 19:36:04 19:40:32 74° 74° (ENE) 19:45:06 145.935
KKS-1 21 Jan 19:37:33 19:40:50 20° 300° (WNW) 19:44:06 437.445
PCSat 21 Jan 19:39:44 19:44:46 40° 245° (WSW) 19:49:46 145.827
AAUSAT CUBESAT 2 21 Jan 19:43:47 19:47:52 59° 260° (W) 19:51:57 437.432
CUTE-I 21 Jan 19:44:01 19:46:25 13° 275° (W) 19:48:48 437.470
STARS 21 Jan 19:50:16 19:54:10 31° 295° (WNW) 19:58:04 437.465
STRAND 1 21 Jan 20:01:34 20:06:41 59° 101° (ESE) 20:11:45 437.568
SEEDS 21 Jan 20:06:45 20:09:40 18° 270° (W) 20:12:36 437.485
Oscar 11 21 Jan 20:08:27 20:12:49 83° 257° (WSW) 20:17:12 .
DELFI C3 21 Jan 20:12:09 20:15:17 23° 64° (ENE) 20:18:26 145.870
XW-2A 21 Jan 20:13:09 20:16:08 27° 264° (W) 20:19:08 145.665 - 145.685
FO-29 21 Jan 20:19:07 20:24:00 38° 97° (E) 20:28:50 435.910
Max Valier Satellite 21 Jan 20:38:46 20:42:01 28° 67° (ENE) 20:45:16 145.860
NO-84 21 Jan 20:39:59 20:42:33 29° 359° (N) 20:45:06 435.350 FM
UWE-3 21 Jan 20:47:32 20:49:53 14° 274° (W) 20:52:16 435.000/436.395/437.385
EO-88 21 Jan 20:55:10 20:58:20 28° 67° (ENE) 21:01:32 145.990 - 145.960
HO-68 21 Jan 21:03:04 21:03:50 10° 281° (W) 21:04:35 435.675
nSIGHT-1 21 Jan 21:03:57 21:06:41 27° 147° (SSE) 21:09:25 .
ZACube-1 21 Jan 21:08:30 21:11:11 15° 273° (W) 21:13:53 437.345
AO-85 21 Jan 21:14:07 21:18:43 41° 239° (WSW) 21:23:34 145.980
AO-73 21 Jan 21:14:41 21:17:19 15° 273° (W) 21:19:58 145.935
ISS 21 Jan 21:21:14 21:24:03 27° 146° (SSE) 21:26:54 437.550
TIGRISAT 21 Jan 21:28:19 21:31:56 22° 91° (E) 21:35:32 435.000
STRAND 1 21 Jan 21:41:23 21:45:31 25° 301° (WNW) 21:49:38 437.568
UNISAT 6 21 Jan 21:43:32 21:47:44 31° 95° (E) 21:51:55 437.425
DELFI C3 21 Jan 21:46:13 21:49:52 37° 263° (W) 21:53:31 145.870
Oscar 11 21 Jan 21:48:54 21:49:40 10° 275° (W) 21:50:26 .
YUBILEINY 21 Jan 22:00:01 22:06:44 25° 77° (ENE) 22:13:26 435.215
FO-29 21 Jan 22:04:26 22:09:08 34° 297° (WNW) 22:13:48 435.910
LO-87 21 Jan 22:11:04 22:14:10 29° 67° (ENE) 22:17:19 145.935 - 145.965
Max Valier Satellite 21 Jan 22:12:34 22:15:47 27° 265° (W) 22:19:03 145.860
NO-84 21 Jan 22:17:19 22:20:06 51° 21° (NNE) 22:22:53 435.350 FM
SPROUT 21 Jan 22:19:15 22:20:07 11° 54° (NE) 22:20:59 437.525
EO-88 21 Jan 22:28:51 22:31:57 26° 265° (W) 22:35:05 145.990 - 145.960
ESTCUBE 1 21 Jan 22:32:01 22:36:20 45° 69° (ENE) 22:40:39 437.505/2401.250
nSIGHT-1 21 Jan 22:39:26 22:42:37 87° 344° (NNW) 22:45:47 .
ISS 21 Jan 22:57:02 23:00:18 88° 343° (NNW) 23:03:35 437.550
TIGRISAT 21 Jan 23:04:19 23:08:56 55° 290° (WNW) 23:13:31 435.000
PRISM 21 Jan 23:11:10 23:15:08 48° 100° (E) 23:19:05 437.425
AIST 2D 21 Jan 23:11:58 23:14:51 24° 94° (E) 23:17:43 435.315
UNISAT 6 21 Jan 23:20:08 23:24:29 38° 293° (WNW) 23:28:49 437.425
POLYITAN 1 21 Jan 23:29:41 23:32:03 14° 88° (E) 23:34:25 437.675
NANOSAT C BR1 21 Jan 23:43:48 23:46:42 17° 90° (E) 23:49:34 145.865
LO-87 21 Jan 23:44:35 23:47:34 24° 266° (W) 23:50:34 145.935 - 145.965
SPROUT 21 Jan 23:50:58 23:55:11 69° 73° (ENE) 23:59:27 437.525
YUBILEINY 21 Jan 23:53:37 00:02:29 86° 280° (W) 00:11:21 435.215
NO-84 21 Jan 23:54:37 23:57:07 28° 219° (SW) 23:59:40 435.350 FM
QB50P2 21 Jan 23:58:28 00:02:15 29° 95° (E) 00:06:00 145.880/145.840
VELOX 1 22 Jan 00:02:52 00:07:08 54° 70° (ENE) 00:11:26 145.980
UKube-1 22 Jan 00:05:14 00:05:50 10° 52° (NE) 00:06:25 .
ESTCUBE 1 22 Jan 00:09:38 00:13:20 24° 267° (W) 00:17:02 437.505/2401.250
nSIGHT-1 22 Jan 00:15:44 00:18:54 67° 5° (N) 00:22:04 .
DX 1 22 Jan 00:16:44 00:19:49 19° 59° (ENE) 00:22:55 434.975-435.025
O/OREOS (USA 219) 22 Jan 00:20:59 00:24:56 31° 106° (ESE) 00:28:53 437.305
DUCHIFAT 1 22 Jan 00:26:04 00:30:04 38° 97° (E) 00:34:03 145.980
EO-79 22 Jan 00:28:42 00:32:54 52° 100° (E) 00:37:05 145.935-145.965
ISS 22 Jan 00:33:39 00:36:55 68° 5° (N) 00:40:11 437.550
AIST 2D 22 Jan 00:45:01 00:48:00 27° 292° (WNW) 00:50:58 435.315
PRISM 22 Jan 00:47:04 00:50:06 20° 299° (WNW) 00:53:08 437.425
50 SAT 22 Jan 00:50:03 00:52:36 24° 67° (ENE) 00:55:11 437.505
POLYITAN 1 22 Jan 01:04:02 01:08:19 72° 287° (WNW) 01:12:36 437.675
AO-91 22 Jan 01:06:19 01:09:42 21° 93° (E) 01:13:18 145.960
NANOSAT C BR1 22 Jan 01:18:33 01:22:45 58° 289° (WNW) 01:26:56 145.865
BUGSAT 1 22 Jan 01:22:41 01:26:38 36° 97° (E) 01:30:35 437.445
SPROUT 22 Jan 01:29:08 01:31:33 15° 272° (W) 01:34:00 437.525
